Weather History for Fort Leonard Wood, MO

Change the Weather History Date:

Tuesday, May 28, 2013

  Actual Average Record
Temperature  
Mean Temperature 72 °F -  
Max Temperature 80 °F 75 °F 91 °F (2012)
Min Temperature 66 °F 58 °F 51 °F (2008)
Cooling Degree Days 8    
Growing Degree Days 22 (Base 50)    
Moisture  
Dew Point 67 °F    
Average Humidity 85    
Maximum Humidity 100    
Minimum Humidity 66    
Precipitation  
Precipitation 0.08 in - - ()
Sea Level Pressure  
Sea Level Pressure 29.86 in    
Wind  
Wind Speed 10 mph (SSE)    
Max Wind Speed 16 mph    
Max Gust Speed 24 mph    
Visibility 10 miles    
Events Rain , Thunderstorm    
Averages and records for this station are not official NWS values.
T = Trace of Precipitation, MM = Missing Value Source: NWS Daily Summary

Daily Weather History Graph

Daily Weather History Graph

Search for Another Location

Airport:

Trip Planner

Search our weather history database for the weather conditions in past years. The results will help you decide how hot, cold, wet, or windy it might be!

Date:

Astronomy

May. 28, 2013 Rise Set
Actual Time 5:49 AM CDT 8:22 PM CDT
Civil Twilight 5:19 AM CDT 8:52 PM CDT
Nautical Twilight 4:41 AM CDT 9:30 PM CDT
Astronomical Twilight 3:59 AM CDT 10:12 PM CDT
Moon 11:48 PM CDT (5/28) 9:37 AM CDT (5/28)
Length of Visible Light 15h 33m
Length of Day
14h 32m
Waning Gibbous, 82% of the Moon is Illuminated
May 28
Waning Gibbous
May 31
Last Quarter
Jun 8
New
Jun 16
First Quarter
Jun 23
Full

Hourly Weather History & Observations

Time (CDT) Temp. Dew Point Humidity Pressure Visibility Wind Dir Wind Speed Gust Speed Precip Events Conditions
12:58 AM 73.8 °F 64.8 °F 73% 29.83 in 10.0 mi South 10.4 mph 19.6 mph N/A   Overcast
1:31 AM 73.4 °F 64.4 °F 73% 29.86 in 10.0 mi South 5.8 mph - N/A   Light Drizzle
1:41 AM 71.6 °F 66.2 °F 83% 29.85 in 10.0 mi South 6.9 mph - N/A   Mostly Cloudy
1:58 AM 71.4 °F 65.5 °F 81% 29.81 in 10.0 mi SSE 9.2 mph - 0.00 in   Partly Cloudy
2:47 AM 71.6 °F 64.4 °F 78% 29.80 in 10.0 mi South 10.4 mph 19.6 mph N/A Rain Light Rain
2:56 AM 71.6 °F 64.4 °F 78% 29.80 in 10.0 mi South 9.2 mph - N/A   Mostly Cloudy
2:58 AM 71.6 °F 64.4 °F 78% 29.78 in 10.0 mi South 10.4 mph - 0.00 in   Mostly Cloudy
3:58 AM 71.6 °F 64.8 °F 79% 29.80 in 10.0 mi South 11.5 mph - N/A   Mostly Cloudy
4:58 AM 70.7 °F 64.8 °F 81% 29.82 in 10.0 mi SSE 10.4 mph - N/A   Scattered Clouds
5:41 AM 69.8 °F 64.4 °F 83% 29.86 in 10.0 mi South 11.5 mph 17.3 mph N/A Rain Light Rain
5:58 AM 69.4 °F 66.0 °F 89% 29.86 in 10.0 mi SSE 6.9 mph - 0.00 in   Light Drizzle
6:19 AM 69.8 °F 66.2 °F 88% 29.87 in 10.0 mi SSE 11.5 mph - N/A   Mostly Cloudy
6:31 AM 69.8 °F 66.2 °F 88% 29.88 in 10.0 mi SSE 9.2 mph - N/A Rain Light Rain
6:50 AM 68.0 °F 66.2 °F 94% 29.89 in 10.0 mi SE 8.1 mph - N/A Thunderstorm Mostly Cloudy
6:58 AM 68.4 °F 66.7 °F 95% 29.87 in 10.0 mi SSE 6.9 mph - 0.02 in   Mostly Cloudy
7:09 AM 68.0 °F 66.2 °F 94% 29.90 in 10.0 mi SSE 10.4 mph - N/A   Light Drizzle
7:37 AM 68.0 °F 66.2 °F 94% 29.89 in 10.0 mi SSE 10.4 mph - N/A   Mostly Cloudy
7:42 AM 68.0 °F 68.0 °F 100% 29.89 in 10.0 mi SSE 11.5 mph - N/A Rain Light Rain
7:58 AM 67.1 °F 67.1 °F 100% 29.88 in 10.0 mi SE 11.5 mph - 0.02 in Rain Light Rain
8:12 AM 66.2 °F 66.2 °F 100% 29.89 in 10.0 mi SSE 12.7 mph - N/A Thunderstorm Overcast
8:17 AM 68.0 °F 68.0 °F 100% 29.89 in 10.0 mi SSE 11.5 mph - N/A Thunderstorm Thunderstorm
8:24 AM 68.0 °F 68.0 °F 100% 29.89 in 10.0 mi SSE 10.4 mph - N/A Rain , Thunderstorm Light Thunderstorms and Rain
8:38 AM 68.0 °F 68.0 °F 100% 29.89 in 10.0 mi SE 11.5 mph - N/A Thunderstorm Light Drizzle
8:41 AM 68.0 °F 68.0 °F 100% 29.89 in 10.0 mi SE 16.1 mph - N/A Thunderstorm Overcast
8:47 AM 68.0 °F 68.0 °F 100% 29.89 in 10.0 mi SE 10.4 mph 20.7 mph N/A Thunderstorm Light Drizzle
8:58 AM 67.8 °F 67.8 °F 100% 29.88 in 6.0 mi SE 10.4 mph - 0.03 in Rain Light Rain
9:17 AM 68.0 °F 68.0 °F 100% 29.89 in 10.0 mi SSE 10.4 mph - N/A   Mostly Cloudy
9:58 AM 69.4 °F 68.4 °F 96% 29.85 in 10.0 mi SSE 12.7 mph 21.9 mph 0.01 in   Mostly Cloudy
10:35 AM 71.6 °F 68.0 °F 88% 29.87 in 10.0 mi South 10.4 mph 17.3 mph N/A Rain Light Rain
10:47 AM 73.4 °F 69.8 °F 88% 29.87 in 10.0 mi South 8.1 mph 19.6 mph N/A   Mostly Cloudy
10:58 AM 74.3 °F 69.3 °F 84% 29.86 in 10.0 mi South 11.5 mph 18.4 mph 0.00 in   Scattered Clouds
11:58 AM 75.6 °F 68.9 °F 80% 29.87 in 10.0 mi South 10.4 mph 17.3 mph N/A   Mostly Cloudy
12:58 PM 75.7 °F 68.2 °F 77% 29.86 in 10.0 mi South 15.0 mph 20.7 mph N/A   Scattered Clouds
1:58 PM 77.0 °F 68.5 °F 75% 29.83 in 10.0 mi South 15.0 mph 21.9 mph N/A   Scattered Clouds
2:58 PM 75.4 °F 66.9 °F 75% 29.86 in 10.0 mi Variable 6.9 mph - N/A   Mostly Cloudy
3:58 PM 77.2 °F 68.0 °F 73% 29.85 in 10.0 mi SSE 11.5 mph - N/A   Scattered Clouds
4:58 PM 79.2 °F 67.1 °F 66% 29.85 in 10.0 mi South 10.4 mph 24.2 mph N/A   Scattered Clouds
5:58 PM 77.7 °F 67.3 °F 70% 29.85 in 10.0 mi SSE 11.5 mph - N/A   Partly Cloudy
6:58 PM 77.7 °F 67.8 °F 71% 29.84 in 10.0 mi SSE 8.1 mph - N/A   Mostly Cloudy
7:58 PM 75.4 °F 67.5 °F 76% 29.83 in 10.0 mi SSE 11.5 mph - N/A   Clear
8:58 PM 73.9 °F 66.4 °F 77% 29.86 in 10.0 mi SSE 11.5 mph - N/A   Overcast
9:58 PM 73.4 °F 65.3 °F 76% 29.86 in 10.0 mi SSE 11.5 mph - N/A   Overcast
10:58 PM 73.0 °F 64.9 °F 76% 29.88 in 10.0 mi South 6.9 mph - N/A   Mostly Cloudy
11:58 PM 72.3 °F 64.8 °F 77% 29.90 in 10.0 mi Variable 6.9 mph - N/A   Mostly Cloudy